Sitka, AK

8:32 PM AKDT on March 22, 2017 (GMT -0800)
Sitka Rocky Gutierrez

Weather History for PASI - October, 2013

Change the Weather History Date:

Tuesday, October 8, 2013

  Actual Average Record
Temperature  
Mean Temperature 49 °F -  
Max Temperature 55 °F 53 °F 61 °F (2015)
Min Temperature 43 °F 43 °F 30 °F (1958)
Degree Days  
Heating Degree Days 16    
Moisture  
Dew Point 44 °F    
Average Humidity 82    
Maximum Humidity 89    
Minimum Humidity 74    
Precipitation  
Precipitation 0.67 in - - ()
Sea Level Pressure  
Sea Level Pressure 29.98 in    
Wind  
Wind Speed 7 mph (ESE)    
Max Wind Speed 29 mph    
Max Gust Speed 37 mph    
Visibility 8 miles    
Events Rain    
Averages and records for this station are not official NWS values.
T = Trace of Precipitation, MM = Missing Value Source: NWS Daily Summary

Daily Weather History Graph

Daily Weather History Graph

Search for Another Location

Airport or City:

Trip Planner

Search our weather history database for the weather conditions in past years. The results will help you decide how hot, cold, wet, or windy it might be!

Date:

Astronomy

Oct. 08, 2013 Rise Set
Actual Time 7:20 AM AKDT 6:15 PM AKDT
Civil Twilight 6:42 AM AKDT 6:54 PM AKDT
Nautical Twilight 5:58 AM AKDT 7:38 PM AKDT
Astronomical Twilight 5:12 AM AKDT 8:23 PM AKDT
Moon 12:10 PM AKDT (10/8) 8:11 PM AKDT (10/8)
Length of Visible Light 12h 11m
Length of Day
10h 55m
Waxing Crescent, 17% of the Moon is Illuminated
Oct 8
Waxing Crescent
Oct 11
First Quarter
Oct 18
Full
Oct 26
Last Quarter
Nov 3
New

Hourly Weather History & Observations

Time (AKDT) Temp. Windchill Dew Point Humidity Pressure Visibility Wind Dir Wind Speed Gust Speed Precip Events Conditions
12:53 AM 44.1 °F 40.1 °F 41.0 °F 89% 30.04 in 10.0 mi East 6.9 mph - N/A   Clear
1:53 AM 44.1 °F - 39.9 °F 85% 30.07 in 10.0 mi Calm Calm - N/A   Partly Cloudy
2:53 AM 43.0 °F 41.3 °F 39.9 °F 89% 30.09 in 10.0 mi East 3.5 mph - N/A   Clear
3:53 AM 43.0 °F 39.5 °F 39.9 °F 89% 30.10 in 10.0 mi East 5.8 mph - N/A   Clear
4:53 AM 44.1 °F 42.5 °F 39.9 °F 85% 30.10 in 10.0 mi East 3.5 mph - N/A   Mostly Cloudy
5:53 AM 44.1 °F 42.5 °F 41.0 °F 89% 30.11 in 10.0 mi East 3.5 mph - N/A   Overcast
6:53 AM 46.0 °F 43.1 °F 42.1 °F 86% 30.09 in 10.0 mi ESE 5.8 mph - N/A   Overcast
7:53 AM 46.9 °F - 42.1 °F 83% 30.08 in 10.0 mi ESE 6.9 mph - N/A   Mostly Cloudy
8:09 AM 48.0 °F - 42.1 °F 80% 30.08 in 10.0 mi ESE 5.8 mph - N/A   Overcast
8:53 AM 46.9 °F - 43.0 °F 86% 30.08 in 10.0 mi East 3.5 mph - N/A   Overcast
9:38 AM 48.0 °F - 43.0 °F 83% 30.08 in 10.0 mi East 4.6 mph - N/A   Overcast
9:53 AM 48.9 °F - 43.0 °F 80% 30.08 in 10.0 mi East 4.6 mph - N/A   Overcast
10:53 AM 50.0 °F - 43.0 °F 77% 30.09 in 10.0 mi ESE 4.6 mph - N/A   Overcast
11:53 AM 50.0 °F - 44.1 °F 80% 30.08 in 10.0 mi ESE 5.8 mph - 0.00 in   Overcast
12:53 PM 50.0 °F - 45.0 °F 83% 30.07 in 6.0 mi ESE 5.8 mph - 0.00 in Rain Light Rain
1:53 PM 50.0 °F - 44.1 °F 80% 30.04 in 6.0 mi SE 9.2 mph - 0.02 in Rain Light Rain
2:04 PM 50.0 °F - 44.1 °F 80% 30.03 in 7.0 mi SE 9.2 mph - 0.01 in Rain Light Rain
2:53 PM 51.1 °F - 43.0 °F 74% 30.00 in 5.0 mi ESE 11.5 mph - 0.03 in Rain Light Rain
3:53 PM 51.1 °F - 44.1 °F 77% 29.99 in 8.0 mi SE 6.9 mph - 0.03 in Rain Light Rain
4:53 PM 51.1 °F - 44.1 °F 77% 29.94 in 7.0 mi SE 9.2 mph - 0.00 in   Overcast
5:53 PM 52.0 °F - 45.0 °F 77% 29.90 in 5.0 mi ESE 10.4 mph 19.6 mph 0.00 in Rain Light Rain
6:53 PM 51.1 °F - 46.0 °F 83% 29.86 in 3.0 mi SE 10.4 mph - 0.02 in Rain Light Rain
7:53 PM 52.0 °F - 46.0 °F 80% 29.81 in 5.0 mi SE 11.5 mph - 0.05 in Rain Rain
8:53 PM 52.0 °F - 46.9 °F 83% 29.75 in 6.0 mi SE 11.5 mph 18.4 mph 0.11 in Rain Rain
9:53 PM 54.0 °F - 48.0 °F 80% 29.69 in 5.0 mi SSE 12.7 mph 24.2 mph 0.12 in Rain Rain
10:53 PM 55.0 °F - 48.0 °F 77% 29.63 in 4.0 mi SE 17.3 mph 34.5 mph 0.15 in Rain Rain
11:53 PM 55.0 °F - 48.9 °F 80% 29.56 in 5.0 mi South 28.8 mph 36.8 mph 0.14 in Rain Rain